sat.trackr.live / text

‹ back to catalog

ITASAT

NORAD 43786 · 2018-099AE

PAYLOAD ACTIVE UNKNOWN

§ Identity

Operator
Country
BRAZ
Launch date
2018-12-03
Launch site
AFWTR
Launch vehicle
Mass (kg)
RCS (m²)

Purposes: comms

External: N2YO · Heavens-Above · Gunter

§ Orbital elements

Epoch: 2026-05-25T02:17:47.800896Z

Period
94.82 min
Inclination
97.4047°
Eccentricity
0.0014206
Mean motion
15.18708379 rev/d
Perigee alt
500.0 km
Apogee alt
519.5 km
Semi-major
6,887.9 km
B*
3.2508e-4
RAAN
197.0718°
Arg perigee
76.6272°
Mean anomaly
283.6545°
Rev number
40,940

§ Raw data

ITASAT1 43786U 18099AE  26145.09569214  .00006696  00000+0  32508-3 0  99962 43786  97.4047 197.0718 0014206  76.6272 283.6545 15.18708379409406

JSON: /api/v1/satellites/43786 · /tle

For live sub-satellite position, see the globe view (requires WebGL).

§ Visibility from observer

Set your observer location to see the next 7 days of passes ≥ 10°. The values pass through the URL so the page stays shareable.

No JS? Fill the form by hand. The geolocation button needs JavaScript.

§ Radio — SatNOGS DB

ModeDescriptionDownlinkUplink
BPSK BPSK14k4 2.400 GHz
BPSK BPSK1k2 AX.25 TLM 145.860 MHz

2 transmitters · refreshed weekly from db.satnogs.org